Location: Izdebno
(52.6670°N, 16.2170°E)
Time: 13:23:39
(UTC+02:00)

A-11 Canister half - Pass Details

Date: 15 February 2023
Orbit: 1526 x 1682 km, 47.3° (Epoch: 26 March)

Event Time Altitude Azimuth Distance (km) Brightness Sun altitude
Rises 03:35:57 0° 237° (WSW) 4,699 - -32.9°
Reaches altitude 10° 03:39:06 10° 233° (SW) 3,706 - -32.5°
Exits shadow 03:46:23 48° 191° (S) 1,912 9.2 -31.4°
Maximum altitude 03:48:01 53° 160° (SSE) 1,817 9.2 -31.2°
Drops below altitude 10° 03:56:56 10° 87° (E) 3,709 11.8 -29.9°
Sets 04:00:05 0° 83° (E) 4,704 12.7 -29.5°
